Location: Newark
(49.3808°N, 3.1844°E)
Time: 20:14:54
(UTC+00:00)

Vanguard 1 Rocket - Pass Details

Date: 17 November 2019
Orbit: 650 x 4226 km, 34.3° (Epoch: 06 December)

Event Time Altitude Azimuth Distance (km) Brightness Sun altitude
Rises 04:10:32 0° 221° (SW) 2,950 - -27.4°
Reaches altitude 10° 04:13:53 10° 191° (S) 2,112 - -26.9°
Exits shadow 04:14:52 12° 179° (S) 2,014 9.2 -26.7°
Maximum altitude 04:16:04 13° 162° (SSE) 2,022 9.3 -26.5°
Drops below altitude 10° 04:18:30 10° 134° (SE) 2,423 10.1 -26.1°
Sets 04:22:59 0° 109° (ESE) 3,844 11.8 -25.4°
